Location: Bun Machan
(52.1403°N, 7.3744°W)
Time: 02:55:28
(UTC+00:00)

ADEOS II - Pass Details

Date: 14 July 2020
Orbit: 799 x 801 km, 98.5° (Epoch: 04 August)

Event Time Altitude Azimuth Distance (km) Brightness Sun altitude
Rises 01:17:07 0° 29° (NNE) 3,322 6.7 -15.7°
Reaches altitude 10° 01:20:56 10° 58° (ENE) 2,385 5.2 -15.6°
Maximum altitude 01:23:15 13° 84° (E) 2,184 4.6 -15.5°
Drops below altitude 10° 01:25:34 10° 110° (ESE) 2,377 4.5 -15.4°
Enters shadow 01:28:37 - 134° (SE) 3,085 4.8 -15.3°
